Weather History for KOXV - November, 2014

Change the Weather History Date:

Friday, November 21, 2014

  Actual Average (KDSM) Record (KDSM)
Temperature  
Mean Temperature 24 °F 36 °F  
Max Temperature 37 °F 45 °F 74 °F (1990)
Min Temperature 12 °F 28 °F -1 °F (1937)
Degree Days  
Heating Degree Days 40 29  
Month to date heating degree days 491  
Since 1 July heating degree days 975  
Cooling Degree Days 0 0  
Month to date cooling degree days 0  
Year to date cooling degree days 1066  
Moisture  
Dew Point 16 °F    
Average Humidity 67    
Maximum Humidity 87    
Minimum Humidity 48    
Precipitation  
Precipitation 0.00 in 0.07 in 1.06 in (1898)
Month to date precipitation 1.62  
Year to date precipitation 34.03  
Snow  
Snow 0.00 in 0.10 in 4.80 in (2007)
Month to date snowfall 1.1  
Since 1 July snowfall 1.5  
Since 1 September snowfall 1.5  
Snow Depth -    
Sea Level Pressure  
Sea Level Pressure 30.20 in    
Wind  
Wind Speed 8 mph (SSE)    
Max Wind Speed 15 mph    
Max Gust Speed 21 mph    
Visibility 10 miles    
Events      
T = Trace of Precipitation, MM = Missing Value Source: NWS Daily Summary

Daily Weather History Graph

Daily Weather History Graph

Search for Another Location

Airport or City:

Trip Planner

Search our weather history database for the weather conditions in past years. The results will help you decide how hot, cold, wet, or windy it might be!

Date:

Astronomy

Nov. 21, 2014 Rise Set
Actual Time 7:07 AM CST 4:48 PM CST
Civil Twilight 6:37 AM CST 5:18 PM CST
Nautical Twilight 6:03 AM CST 5:52 PM CST
Astronomical Twilight 5:31 AM CST 6:25 PM CST
Moon 6:03 AM CST (11/21) 4:34 PM CST (11/21)
Length of Visible Light 10h 40m
Length of Day
9h 40m
Waning Crescent, 1% of the Moon is Illuminated
Nov 21
Waning Crescent
Nov 22
New
Nov 29
First Quarter
Dec 6
Full
Dec 14
Last Quarter

Hourly Weather History & Observations

Time (CST) Temp. Windchill Dew Point Humidity Pressure Visibility Wind Dir Wind Speed Gust Speed Precip Events Conditions
12:15 AM 15.8 °F 10.2 °F 8.6 °F 73% 30.31 in 10.0 mi ESE 3.5 mph - N/A   Clear
12:35 AM 15.8 °F 8.6 °F 8.6 °F 73% 30.31 in 10.0 mi ESE 4.6 mph - N/A   Clear
12:55 AM 15.8 °F 7.2 °F 8.6 °F 73% 30.31 in 10.0 mi ESE 5.8 mph - N/A   Clear
1:15 AM 14.0 °F 5.1 °F 6.8 °F 73% 30.31 in 10.0 mi ESE 5.8 mph - N/A   Clear
1:35 AM 14.0 °F 3.9 °F 6.8 °F 73% 30.31 in 10.0 mi SSE 6.9 mph - N/A   Clear
1:55 AM 14.0 °F 5.1 °F 6.8 °F 73% 30.31 in 10.0 mi SSE 5.8 mph - N/A   Clear
2:15 AM 12.2 °F 1.7 °F 6.8 °F 79% 30.31 in 10.0 mi SSE 6.9 mph - N/A   Clear
2:35 AM 14.0 °F 6.5 °F 6.8 °F 73% 30.32 in 10.0 mi SSE 4.6 mph - N/A   Clear
2:55 AM 14.0 °F 5.1 °F 6.8 °F 73% 30.32 in 10.0 mi SSE 5.8 mph - N/A   Clear
3:15 AM 14.0 °F 5.1 °F 6.8 °F 73% 30.32 in 10.0 mi SSE 5.8 mph - N/A   Clear
3:35 AM 14.0 °F 5.1 °F 6.8 °F 73% 30.31 in 10.0 mi ESE 5.8 mph - N/A   Clear
3:55 AM 14.0 °F 5.1 °F 6.8 °F 73% 30.30 in 10.0 mi ESE 5.8 mph - N/A   Clear
4:15 AM 14.0 °F 3.9 °F 6.8 °F 73% 30.30 in 10.0 mi ESE 6.9 mph - N/A   Clear
4:35 AM 14.0 °F 5.1 °F 6.8 °F 73% 30.31 in 10.0 mi SE 5.8 mph - N/A   Clear
4:55 AM 14.0 °F 3.9 °F 6.8 °F 73% 30.30 in 10.0 mi SE 6.9 mph - N/A   Clear
5:15 AM 12.2 °F 2.9 °F 6.8 °F 79% 30.30 in 10.0 mi ESE 5.8 mph - N/A   Clear
5:35 AM 12.2 °F 1.7 °F 6.8 °F 79% 30.30 in 10.0 mi ESE 6.9 mph - N/A   Clear
5:55 AM 12.2 °F 2.9 °F 6.8 °F 79% 30.30 in 10.0 mi ESE 5.8 mph - N/A   Clear
6:15 AM 14.0 °F 3.9 °F 6.8 °F 73% 30.30 in 10.0 mi SE 6.9 mph - N/A   Clear
6:35 AM 14.0 °F 2.0 °F 6.8 °F 73% 30.30 in 10.0 mi SE 9.2 mph - N/A   Clear
6:55 AM 14.0 °F 2.0 °F 6.8 °F 73% 30.30 in 10.0 mi SE 9.2 mph - N/A   Clear
7:15 AM 14.0 °F 2.0 °F 6.8 °F 73% 30.30 in 10.0 mi SE 9.2 mph - N/A   Clear
7:35 AM 14.0 °F 2.0 °F 6.8 °F 73% 30.31 in 10.0 mi SE 9.2 mph - N/A   Clear
7:55 AM 15.8 °F 2.7 °F 8.6 °F 73% 30.30 in 10.0 mi SE 11.5 mph - N/A   Clear
8:15 AM 17.6 °F 3.7 °F 8.6 °F 68% 30.30 in 10.0 mi SE 13.8 mph - N/A   Clear
8:35 AM 17.6 °F 4.3 °F 10.4 °F 73% 30.31 in 10.0 mi SE 12.7 mph - N/A   Clear
8:55 AM 19.4 °F 7.2 °F 10.4 °F 68% 30.31 in 10.0 mi SSE 11.5 mph - N/A   Clear
9:15 AM 21.2 °F 8.9 °F 10.4 °F 63% 30.31 in 10.0 mi SSE 12.7 mph 19.6 mph N/A   Clear
9:35 AM 23.0 °F 10.6 °F 12.2 °F 63% 30.30 in 10.0 mi SSE 13.8 mph 19.6 mph N/A   Clear
9:55 AM 24.8 °F 13.4 °F 12.2 °F 59% 30.30 in 10.0 mi SSE 12.7 mph - N/A   Clear
11:15 AM 30.2 °F 19.3 °F 14.0 °F 51% 30.26 in 10.0 mi SSE 15.0 mph 20.7 mph N/A   Clear
11:35 AM 32.0 °F 21.6 °F 14.0 °F 48% 30.25 in 10.0 mi SE 15.0 mph - N/A   Clear
11:55 AM 32.0 °F 21.6 °F 15.8 °F 51% 30.23 in 10.0 mi SE 15.0 mph - N/A   Clear
12:15 PM 33.8 °F 24.8 °F 15.8 °F 48% 30.22 in 10.0 mi SE 12.7 mph - N/A   Clear
12:35 PM 33.8 °F 24.3 °F 17.6 °F 52% 30.20 in 10.0 mi SSE 13.8 mph - N/A   Clear
12:55 PM 35.6 °F 27.1 °F 17.6 °F 48% 30.19 in 10.0 mi South 12.7 mph 20.7 mph N/A   Clear
1:15 PM 35.6 °F 26.2 °F 17.6 °F 48% 30.18 in 10.0 mi SSE 15.0 mph - N/A   Clear
1:35 PM 35.6 °F 28.0 °F 17.6 °F 48% 30.17 in 10.0 mi SSE 10.4 mph 18.4 mph N/A   Clear
1:55 PM 35.6 °F 26.6 °F 19.4 °F 52% 30.16 in 10.0 mi SSE 13.8 mph - N/A   Mostly Cloudy
2:15 PM 35.6 °F 27.1 °F 19.4 °F 52% 30.16 in 10.0 mi SSE 12.7 mph 20.7 mph N/A   Overcast
2:35 PM 35.6 °F 27.1 °F 19.4 °F 52% 30.15 in 10.0 mi South 12.7 mph 20.7 mph N/A   Overcast
2:55 PM 35.6 °F 26.6 °F 19.4 °F 52% 30.15 in 10.0 mi SSE 13.8 mph - N/A   Overcast
3:15 PM 35.6 °F 26.2 °F 19.4 °F 52% 30.14 in 10.0 mi SSE 15.0 mph - N/A   Overcast
3:35 PM 37.4 °F 29.8 °F 21.2 °F 52% 30.14 in 10.0 mi SSE 11.5 mph 17.3 mph N/A   Overcast
3:55 PM 37.4 °F 28.9 °F 21.2 °F 52% 30.15 in 10.0 mi SSE 13.8 mph - N/A   Overcast
4:15 PM 35.6 °F 27.5 °F 21.2 °F 56% 30.14 in 10.0 mi SSE 11.5 mph - N/A   Overcast
4:35 PM 35.6 °F 26.6 °F 21.2 °F 56% 30.13 in 10.0 mi SSE 13.8 mph - N/A   Overcast
4:55 PM 35.6 °F 28.0 °F 21.2 °F 56% 30.13 in 10.0 mi SSE 10.4 mph - N/A   Overcast
5:15 PM 35.6 °F 27.1 °F 21.2 °F 56% 30.12 in 10.0 mi SSE 12.7 mph - N/A   Overcast
5:35 PM 35.6 °F 27.1 °F 21.2 °F 56% 30.12 in 10.0 mi SSE 12.7 mph - N/A   Overcast
5:55 PM 35.6 °F 27.1 °F 21.2 °F 56% 30.11 in 10.0 mi SSE 12.7 mph - N/A   Overcast
6:15 PM 35.6 °F 27.1 °F 21.2 °F 56% 30.11 in 10.0 mi SSE 12.7 mph - N/A   Overcast
6:35 PM 35.6 °F 27.5 °F 21.2 °F 56% 30.10 in 10.0 mi SSE 11.5 mph - N/A   Overcast
6:55 PM 35.6 °F 27.5 °F 21.2 °F 56% 30.10 in 10.0 mi SSE 11.5 mph - N/A   Overcast
7:15 PM 35.6 °F 28.6 °F 23.0 °F 60% 30.10 in 9.0 mi SSE 9.2 mph - N/A   Overcast
7:35 PM 33.8 °F 25.8 °F 26.6 °F 75% 30.09 in 7.0 mi SSE 10.4 mph 16.1 mph N/A   Overcast
7:55 PM 33.8 °F 27.0 °F 26.6 °F 75% 30.09 in 8.0 mi South 8.1 mph - N/A   Overcast
8:15 PM 33.8 °F 28.6 °F 26.6 °F 75% 30.08 in 10.0 mi SSE 5.8 mph - N/A   Overcast
8:35 PM 33.8 °F 27.7 °F 28.4 °F 81% 30.08 in 10.0 mi SSE 6.9 mph - N/A   Overcast
8:55 PM 33.8 °F 27.0 °F 28.4 °F 81% 30.07 in 10.0 mi SSE 8.1 mph - N/A   Overcast
9:15 PM 33.8 °F 28.6 °F 28.4 °F 81% 30.06 in 10.0 mi SSE 5.8 mph - N/A   Overcast
9:35 PM 33.8 °F 27.0 °F 28.4 °F 81% 30.06 in 5.0 mi SSE 8.1 mph - N/A   Haze
9:55 PM 33.8 °F 27.0 °F 28.4 °F 81% 30.05 in 10.0 mi South 8.1 mph - N/A   Overcast
10:15 PM 33.8 °F 27.7 °F 28.4 °F 81% 30.04 in 10.0 mi South 6.9 mph - N/A   Overcast
10:35 PM 35.6 °F 29.9 °F 28.4 °F 75% 30.04 in 10.0 mi South 6.9 mph - N/A   Overcast
10:55 PM 35.6 °F 29.9 °F 30.2 °F 81% 30.04 in 10.0 mi South 6.9 mph - N/A   Overcast
11:15 PM 35.6 °F 29.9 °F 30.2 °F 81% 30.03 in 10.0 mi South 6.9 mph - N/A   Overcast
11:35 PM 35.6 °F 29.2 °F 32.0 °F 87% 30.03 in 10.0 mi South 8.1 mph - N/A   Overcast
11:55 PM 35.6 °F 29.9 °F 32.0 °F 87% 30.02 in 10.0 mi South 6.9 mph - N/A   Overcast